User: anonymous   Login
Location: Fort Wayne
(41.1310°N, 85.1290°W)
Time: 13:28:42
(UTC-04:00)
Language:

Cosmos 2219 Rocket - Orbit

View from above orbital plane
View from above orbital plane
View from above satellite
View from above satellite

Ground track
Ground track

The orbit data is extracted from the following two-line orbital elements,

1 22220U 92076B   15186.18416781 -.00000184  00000-0 -68160-4 0  9999
2 22220 071.0004 120.0246 0015104 277.9328 181.9091 14.16369765169818
Epoch (UTC): 05 July 2015 04:25:12
Eccentricity: 0.0015104
inclination: 71.0004°
perigee height: 827 km
apogee height: 848 km
right ascension of ascending node: 120.0246°
argument of perigee: 277.9328°
revolutions per day: 14.16369765
mean anomaly at epoch: 181.9091°
orbit number at epoch: 16981

The dashed part of the orbit path shows where the satellite is in the earth's shadow,  

DLR